Location: Red Deer
(52.2681°N, 113.8112°W)
Time: 01:41:57
(UTC-07:00)

BlueWalker 3 - Pass Details

Date: 01 December 2022
Orbit: 499 x 517 km, 53.2° (Epoch: 29 January)

Event Time Altitude Azimuth Distance (km) Brightness Sun altitude
Rises 20:23:14 0° 286° (WNW) 2,624 6.6 -35.2°
Reaches altitude 10° 20:25:27 10° 284° (WNW) 1,732 5.4 -35.5°
Enters shadow 20:25:40 11° 283° (WNW) 1,648 5.3 -35.6°
